Regional Weather Roundup
Issued by NWS

Home | Current Version | Previous Version | Graphics & Text | Print | Product List | Glossary On
Versions: 1 2 3 4 5 6 7 8 9 10 11 12 13 14 15 16 17 18 19 20 21 22 23 24 25 26 27 28 29 30 31 32 33 34 35 36 37 38 39 40 41 42 43 44 45 46 47 48 49 50
000
ASUS45 KABQ 312110
RWRNM
NEW MEXICO REGIONAL WEATHER ROUNDUP
NATIONAL WEATHER SERVICE ALBUQUERQUE NM
300 PM MDT FRI JUL 31 2015

NOTE: "FAIR" MEANS FEW OR NO CLOUDS BELOW 12,000 FEET AGL WITH NO
       SIGNIFICANT WEATHER OR OBSTRUCTIONS TO VISION.

      THIS PRODUCT IS RELEASED AS TWO VERSIONS.  ONE VERSION NEAR
      THE TOP OF THE HOUR CONTAINING PRELIMINARY DATA FROM ALBUQUERQUE
      AND OTHER STATIONS.  A FINAL VERSION WITH ADDITIONAL DATA IS
      ISSUED ABOUT 10 MINUTES AFTER THE HOUR.

NMZ501-503-504-510>518-312200-
NORTHWEST PLATEAU/NORTHCENTRAL MOUNTAINS

CITY           SKY/WX    TMP DP  RH WIND       PRES   REMARKS
FARMINGTON     TSTM      67  63  87 W6        30.29S FOG
LOS ALAMOS     RAIN      61  57  88 SW5       30.45S
SANTA FE       PTSUNNY   78  56  46 NW8       30.36F
TAOS           CLOUDY    66  46  48 W13       30.46R
ANGEL FIRE     LGT RAIN  62  55  77 SW6       30.52R

$$
NMZ402-403-502-505>509-312200-
WESTCENTRAL MOUNTAINS/SOUTHWEST MOUNTAINS

CITY           SKY/WX    TMP DP  RH WIND       PRES   REMARKS
GALLUP         PTSUNNY   79  54  41 VRB6      30.34F
GRANTS         TSTM      64  58  81 E7        30.37F
SILVER CITY      N/A     84  54  34 SE10G18   30.30F

$$
NMZ407-409-411-412-312200-
SOUTHERN DESERTS

CITY           SKY/WX    TMP DP  RH WIND       PRES   REMARKS
LORDSBURG      FAIR      88  57  35 E12G20    30.18F
DEMING         SUNNY     87  62  43 E9G18     30.20F
LAS CRUCES     SUNNY     88  58  36 SE9       30.21F
HOLLOMAN AFB   SUNNY     93  53  25 N12       30.14F
ALAMOGORDO     MOSUNNY   91  50  24 S12G20    30.17F
T OR C         SUNNY     86  56  35 SW6       30.23F

$$
NMZ519>523-312200-
CENTRAL VALLEYS/CENTRAL HIGHLANDS

CITY           SKY/WX    TMP DP  RH WIND       PRES   REMARKS
ALBUQUERQUE    MOSUNNY   85  55  35 SE9       30.27F
DOUBLE EAGLE   PTSUNNY   81  59  47 VRB7      30.32F
MORIARTY ARPT    N/A     70  57  63 CALM      30.36F
CLINES CORNERS CLOUDY    72  57  59 NW9       30.39F
BELEN          FAIR      86  53  31 E5        30.25F
SOCORRO        FAIR      88  52  28 SE13G21   30.23F

$$
NMZ524>526-539-540-312200-
SOUTHCENTRAL MOUNTAINS

CITY           SKY/WX    TMP DP  RH WIND       PRES   REMARKS
RUIDOSO          N/A    N/A N/A N/A MISG        N/A

$$
NMZ527>531-312200-
NORTHEAST HIGHLANDS/NORTHEAST PLAINS

CITY           SKY/WX    TMP DP  RH WIND       PRES   REMARKS
LAS VEGAS      LGT RAIN  60  56  86 SW5       30.41F
RATON          MOSUNNY   82  54  37 E6        30.32F
CLAYTON        MOSUNNY   82  63  52 S12       30.25F

$$
NMZ532>537-312200-
EASTCENTRAL PLAINS

CITY           SKY/WX    TMP DP  RH WIND       PRES   REMARKS
TUCUMCARI      MOSUNNY   82  65  56 SE7       30.21F
CANNON AFB     MOSUNNY   84  64  51 S3        30.23F
CLOVIS AIRPORT MOSUNNY   86  63  45 SE8       30.25F

$$
NMZ028-029-538-312200-
SOUTHEAST PLAINS

CITY           SKY/WX    TMP DP  RH WIND       PRES   REMARKS
ROSWELL        MOSUNNY   95  52  23 E12G17    30.15F
ARTESIA        SUNNY     93  55  27 SE12      30.15F
CARLSBAD       SUNNY     98  54  22 MISG      30.13F HX  96
HOBBS          MOSUNNY   93  48  21 SE7       30.17F


$$


USA.gov is the U.S. government's official web portal to all federal, state and local government web resources and services.